Hourly Data Report for June 14, 2017

TORONTO CITY
ONTARIO

43°40'00.000" N
79°24'00.000" W
112.50 m
6158355
71508
XTO

Download Data

Hourly Data (June 2017)
Hourly Data Report for June 14, 2017
TIME
LST
Temp Definition
°C
Dew Point Definition
°C
Rel Hum Definition
%
Precip. Amount Definition
mm

Wind Dir Definition
10's deg

Wind Spd Definition
km/h
Visibility Definition
km
Stn Press Definition
kPa
Hmdx Definition


Wind Chill Definition


Weather Definition


00:00 20.1 16.3 79 0.0 LegendMM LegendMM   100.36 25   LegendNANA
01:00 19.2 16.3 83 0.0 LegendMM LegendMM   100.33     LegendNANA
02:00 18.7 16.1 85 0.0 LegendMM LegendMM   100.33     LegendNANA
03:00 17.8 15.8 88 0.0 LegendMM LegendMM   100.37     LegendNANA
04:00 17.9 15.9 88 0.0 LegendMM LegendMM   100.38     LegendNANA
05:00 17.9 15.6 86 0.0 LegendMM LegendMM   100.47     LegendNANA
06:00 18.2 7.0 48 0.0 LegendMM LegendMM   100.53     LegendNANA
07:00 18.1 5.5 44 0.0 LegendMM LegendMM   100.61     LegendNANA
08:00 19.0 4.2 38 0.0 LegendMM LegendMM   100.63     LegendNANA
09:00 19.0 3.2 35 0.0 LegendMM LegendMM   100.64     LegendNANA
10:00 18.9 2.7 34 0.0 LegendMM LegendMM   100.66     LegendNANA
11:00 18.6 4.2 38 0.0 LegendMM LegendMM   100.63     LegendNANA
12:00 19.6 4.8 38 0.0 LegendMM LegendMM   100.59     LegendNANA
13:00 20.0 4.7 37 0.0 LegendMM LegendMM   100.55     LegendNANA
14:00 21.4 3.0 30 0.0 LegendMM LegendMM   100.55     LegendNANA
15:00 22.0 4.7 33 0.0 LegendMM LegendMM   100.49     LegendNANA
16:00 21.4 2.6 29 0.0 LegendMM LegendMM   100.43     LegendNANA
17:00 21.3 2.0 28 0.0 LegendMM LegendMM   100.35     LegendNANA
18:00 20.6 2.5 30 0.0 LegendMM LegendMM   100.27     LegendNANA
19:00 19.5 3.1 34 0.0 LegendMM LegendMM   100.27     LegendNANA
20:00 18.8 4.2 38 0.0 LegendMM LegendMM   100.27     LegendNANA
21:00 18.6 4.6 40 0.0 LegendMM LegendMM   100.28     LegendNANA
22:00 17.9 5.9 45 0.0 LegendMM LegendMM   100.34     LegendNANA
23:00 17.8 5.8 45 0.0 LegendMM LegendMM   100.28     LegendNANA

Notes on Data Quality.

Legend

  • E = Estimated
  • M = Missing
  • NA = Not Available*
  • [empty] = Indicates an unobserved value
Date modified: